Вернуться в каталог

STARLINK-36108

АктивенСвязьVLEO
NORAD 66868·PAYLOAD·🇺🇸 United States

Запущен Dec 2, 2025 с Cape Canaveral Space Force Station

Loading…

Ближайшие Пролёты (ближайшие 24 часа)

TLE

СвежийSource: CelesTrak SupGP

Эпоха: Sep 15, 2026, 02:31 UTC

1 66868C 25281W   26258.10534722  .00031132  00000+0  11274-2 0  2583
2 66868  43.0037 354.0569 0001831 266.0814 347.4707 15.27569281    14

Отслеживайте STARLINK-36108 в реальном времени с AllMySat

Download on the App Store